Location: Epalinges
(46.5518°N, 6.6683°E)
Time: 15:21:13
(UTC+00:00)

Cosmos 1633 - Pass Details

Date: 20 June 2021
Orbit: 461 x 476 km, 82.5° (Epoch: 31 July)

Event Time Altitude Azimuth Distance (km) Brightness Sun altitude
Exits shadow 00:53:18 26° 136° (SE) 949 3.8 -17.8°
Maximum altitude 00:54:35 35° 93° (E) 763 3.6 -17.7°
Drops below altitude 10° 00:57:50 10° 26° (NNE) 1,624 6.5 -17.5°
Sets 01:00:02 0° 17° (NNE) 2,508 8.0 -17.4°
